TimeCDT,TemperatureF,Dew PointF,Humidity,Sea Level PressureIn,VisibilityMPH,Wind Direction,Wind SpeedMPH,Gust SpeedMPH,PrecipitationIn,Events,Conditions,WindDirDegrees,DateUTC
12:52 AM,59.0,55.9,90,30.02,10.0,Calm,Calm,-,N/A,,Clear,0,2013-05-09 05:52:00
2:52 AM,57.0,55.0,93,30.02,6.0,Calm,Calm,-,N/A,,Clear,0,2013-05-09 07:52:00
3:52 AM,57.9,55.9,93,30.02,6.0,Calm,Calm,-,N/A,,Clear,0,2013-05-09 08:52:00
4:52 AM,59.0,57.0,93,30.02,8.0,Calm,Calm,-,N/A,,Overcast,0,2013-05-09 09:52:00
5:52 AM,57.9,55.9,93,30.04,9.0,Calm,Calm,-,N/A,,Scattered Clouds,0,2013-05-09 10:52:00
6:52 AM,59.0,57.0,93,30.05,6.0,Calm,Calm,-,N/A,,Partly Cloudy,0,2013-05-09 11:52:00
7:52 AM,61.0,57.9,90,30.06,7.0,Calm,Calm,-,N/A,,Scattered Clouds,0,2013-05-09 12:52:00
8:52 AM,70.0,61.0,73,30.05,10.0,Calm,Calm,-,N/A,,Partly Cloudy,0,2013-05-09 13:52:00
9:52 AM,75.9,59.0,56,30.06,10.0,South,10.4,-,N/A,,Scattered Clouds,190,2013-05-09 14:52:00
10:52 AM,77.0,57.9,52,30.06,10.0,SSW,12.7,-,N/A,,Scattered Clouds,200,2013-05-09 15:52:00
11:52 AM,79.0,57.9,48,30.06,10.0,SW,10.4,-,N/A,,Scattered Clouds,220,2013-05-09 16:52:00
1:30 PM,77.0,55.4,47,30.06,10.0,WSW,12.7,-,N/A,Thunderstorm,Mostly Cloudy,240,2013-05-09 18:30:00
1:45 PM,71.6,62.6,73,30.06,10.0,West,8.1,-,0.01,Rain,Light Rain,260,2013-05-09 18:45:00
1:52 PM,72.0,63.0,73,30.05,10.0,WSW,6.9,-,0.01,,Overcast,250,2013-05-09 18:52:00
3:52 PM,77.0,62.1,60,29.96,10.0,SSE,6.9,-,N/A,,Clear,150,2013-05-09 20:52:00
4:52 PM,79.0,57.9,48,29.96,10.0,SSW,17.3,-,N/A,,Scattered Clouds,210,2013-05-09 21:52:00
5:52 PM,79.0,57.9,48,29.95,10.0,SSW,11.5,-,N/A,,Scattered Clouds,210,2013-05-09 22:52:00
7:52 PM,73.0,57.9,59,29.96,10.0,South,6.9,-,N/A,,Clear,190,2013-05-10 00:52:00
9:52 PM,68.0,59.0,73,29.98,10.0,South,6.9,-,N/A,,Clear,190,2013-05-10 02:52:00
10:52 PM,68.0,59.0,73,29.97,10.0,South,5.8,-,N/A,,Clear,190,2013-05-10 03:52:00